Retour au catalogue

FENGYUN 1C DEB

ActifPO
NORAD 38789·DEBRIS·🇨🇳 China

Lancé May 10, 1999 depuis Taiyuan Satellite Launch Center

Loading…

Prochains Passages (prochaines 24 heures)

TLE

VieillissantSource: Space-Track

Époque: Sep 7, 2026, 13:11 UTC

1 38789U 99025EUD 26250.54970289  .00001672  00000-0  36640-3 0  9997
2 38789  98.8280 153.6228 0202099 299.1213 184.1842 14.47319053657326

Suivez FENGYUN 1C DEB en temps réel avec AllMySat

Download on the App Store